Lexington Weather

Lexington, Massachusetts, USA

46°F
10/26/2020 5:30am 
  • Lexington Conditions: Overcast
  • Temperature: 45.7°F / 7.6°CWarmer 0.6°F than last hour.
  • Dew Point: 40.5°FIncreased 0.8°Fsince last hour.
  • Relative Humidity: 82%Increased 1.0% since last hour.
  • Wind: Wind from S S 1 mph, 10-min avg: 1 mph, gust: 3 mph
  • Barometer: 30.27 in Steady
  • Visibility: 10 miles
  • Rain Today: 0.00 in
  •   

Regional Weather Roundup
for Boston / Norton, MA

        
000
ASUS41 KBOX 250904
RWRBOX

REGIONAL WEATHER ROUNDUP
NATIONAL WEATHER SERVICE BOSTON/NORTON MA
500 AM EDT SUN OCT 25 2020

NOTE:  "FAIR" INDICATES FEW OR NO CLOUDS BELOW 12,000 FEET WITH NO 
SIGNIFICANT WEATHER AND/OR OBSTRUCTIONS TO VISIBILITY.

MAZALL-251000-
EASTERN MASSACHUSETTS
  
CITY           SKY/WX    TMP DP  RH WIND       PRES   REMARKS
BOSTON         MOCLDY    43  31  62 N13       30.13R                  
BEVERLY        MOCLDY    41  33  73 NW7       30.12R                  
LAWRENCE       CLEAR     39  32  76 W3        30.15R                  
BEDFORD        CLEAR     35  32  88 CALM      30.12R                  
BLUE HILL        N/A     40  31  70 N9        30.10R                  
NORWOOD        CLEAR     42  32  67 CALM      30.12R                  
MARSHFIELD     CLOUDY    48  36  61 VRB7G16   30.12R                  
PLYMOUTH       CLOUDY    46  33  60 N9        30.11R                  
TAUNTON        PTCLDY    45  33  63 NW3       30.13R                  
NEW BEDFORD    CLOUDY    46  33  60 VRB6      30.12R                  
$$

MAZALL-251000-
CAPE COD AND THE ISLANDS
  
CITY           SKY/WX    TMP DP  RH WIND       PRES   REMARKS
FALMOUTH       MOCLDY    45  36  70 N7        30.11R                  
HYANNIS        CLOUDY    51  41  68 N12G22    30.08R                  
CHATHAM        MOCLDY    50  39  66 VRB6      30.10R                  
PROVINCETOWN   CLOUDY    50  40  68 N14G20    30.11R                  
NANTUCKET      MOCLDY   N/A N/A N/A N20       30.09R                  
MARTHAS VNYRD  CLEAR     46  37  71 N8        30.11R                  
$$
 
MAZALL-251000-
CENTRAL AND WESTERN MASSACHUSETTS
  
CITY           SKY/WX    TMP DP  RH WIND       PRES   REMARKS
WORCESTER      CLEAR     39  30  70 N7        30.12R                  
FITCHBURG      CLEAR     33  30  88 CALM      30.15R                  
ORANGE         CLEAR     37  30  75 N3        30.15R                  
SPRINGFIELD    CLEAR     39  31  72 N3        30.14R                  
WESTFIELD      CLEAR     35  33  92 CALM      30.15R                  
NORTH ADAMS    CLEAR     40  30  67 SW3       30.16R                  
PITTSFIELD     PTCLDY    36  29  75 W5        30.13R                  
$$
 
RIZALL-251000-
RHODE ISLAND
  
CITY           SKY/WX    TMP DP  RH WIND       PRES   REMARKS
PROVIDENCE     CLEAR     43  33  68 N8        30.14R                  
NEWPORT        CLEAR     44  33  65 N12       30.12R                  
BLOCK ISLAND   CLEAR     45  33  63 N18G24    30.13R                  
SMITHFIELD     CLEAR     40  33  76 N7        30.13R                  
WESTERLY       CLEAR     43  32  65 N9        30.14R                  
$$
 
CTZALL-251000-
CONNECTICUT
  
CITY           SKY/WX    TMP DP  RH WIND       PRES   REMARKS
BRADLEY INTL   MOCLDY    41  33  73 N3        30.15R                  
HARTFORD       PTCLDY    45  33  63 N7        30.15R                  
BRIDGEPORT     PTCLDY    44  35  70 N5        30.16R                  
DANBURY        PTCLDY    41  32  70 N6          N/A                   
GROTON         CLEAR     44  33  65 N9        30.13R                  
NEW HAVEN      PTCLDY    42  35  76 CALM      30.15R                  
CHESTER        FAIR      41  36  81 N5        30.14R                  
MERIDEN        PTCLDY    41  36  82 CALM      30.15R                  
WILLIMANTIC    CLEAR     41  33  73 CALM      30.15R                  
OXFORD         PTCLDY    38  34  85 N6        30.15R                  
$$

MEZ002-015-021-024-NHZ003-005-008-011-012-014-VTZ005-008-251000-
NORTHERN NEW ENGLAND
  
CITY           SKY/WX    TMP DP  RH WIND       PRES   REMARKS
PORTLAND ME    CLEAR     39  31  72 N3        30.13R                  
BANGOR ME      CLOUDY    39  32  76 NW8       30.11R                  
CONCORD NH     CLEAR     36  29  75 NW3       30.14R                  
MANCHESTER NH  CLEAR     43  30  60 NW8       30.12R                  
NASHUA NH      CLEAR     37  33  85 CALM      30.15R                  
PORTSMOUTH NH  PTCLDY    40  31  71 NW3       30.12R                  
JAFFREY NH     CLEAR     36  29  75 VRB5      30.12R                  
KEENE NH       MOCLDY    37  32  82 CALM      30.16R                  
BURLINGTON VT  CLOUDY    40  28  62 N9        30.21S                  
MT. WASHINGTON NOT AVBL                                               
$$

NYZ052-076-251000-
EASTERN NEW YORK
  
CITY           SKY/WX    TMP DP  RH WIND       PRES   REMARKS
ALBANY         PTCLDY    33  29  85 W5        30.20R WCI  29          
NEW YORK CITY  MOCLDY    48  33  56 N9        30.15R                  
$$
 
ANZALL-251000-
MARINE OBSERVATIONS
  
STATION/POSITION TIME  TEMP    WIND        PRES    VSBY  WAVE
                       AIR SEA DIR/SP/G                  HT/PER
                 (UTC) (F)     (DEG/KT/KT) (MB)    (MI)  (FT/S)
BOSTON BUOY      0850   48 58  350/ 17/ 21 1018.4R         6/13
BUZZARDS BAY     0800          360/ 21/ 24 1019.6R
NANTUCKET SOUND  0850      62  360/ 17/ 23   N/A           2/ 3
MASS BAY-STELLWA 0804   49 57  340/ 16/ 17 1018.4R  1 7/8  4/ 5
ISLE OF SHOALS   0800   46     310/ 14/ 15 1019.1R
S OF BLOCK IS    0826      62                N/A           7/12
$$

......................KEY.........................
  SKY/WX - SKY CONDITION/PRESENT WEATHER
  TMP    - TEMPERATURE IN FAHRENHEIT
  DWPT   - DEWPOINT IN FAHRENHEIT
  RH     - RELATIVE HUMIDITY IN PERCENT
  WIND   - DIRECTION AND SPEED IN MPH
  PRES   - MEAN SEA LEVEL PRESSURE IN INCHES OF HG
  WCI    - WIND CHILL INDEX
  VSB    - VISIBILITY IN MILES
  HX     - HEAT INDEX
  TC     - TEMPERATURE IN CELSIUS
  VRB    - VARIABLE WIND DIRECTION
  N/A    - NOT AVAILABLE
  
      

Other recent Regional Weather Roundups

Mon Oct 26, 5:04am

Mon Oct 26, 4:04am

Mon Oct 26, 3:04am

Mon Oct 26, 2:04am

Mon Oct 26, 1:04am

Mon Oct 26, 12:04am

Sun Oct 25, 11:05pm

Sun Oct 25, 10:04pm

Sun Oct 25, 9:04pm

Sun Oct 25, 8:04pm

Sun Oct 25, 7:04pm

Sun Oct 25, 6:04pm

Sun Oct 25, 5:04pm

Sun Oct 25, 4:05pm

Sun Oct 25, 3:04pm

Sun Oct 25, 2:04pm

Sun Oct 25, 1:04pm

Sun Oct 25, 12:04pm

Sun Oct 25, 11:04am

Sun Oct 25, 10:04am

Sun Oct 25, 9:04am

Sun Oct 25, 8:04am

Sun Oct 25, 7:04am

Sun Oct 25, 6:04am

Sun Oct 25, 4:04am

Sun Oct 25, 3:04am

Sun Oct 25, 2:04am

Sun Oct 25, 1:05am

Sun Oct 25, 12:04am

Sat Oct 24, 11:04pm

Sat Oct 24, 10:04pm

Sat Oct 24, 9:04pm

Sat Oct 24, 8:04pm

Sat Oct 24, 7:04pm

Sat Oct 24, 6:04pm

Sat Oct 24, 5:05pm

Sat Oct 24, 4:04pm

Sat Oct 24, 3:04pm

Sat Oct 24, 2:04pm

Sat Oct 24, 1:05pm

Sat Oct 24, 12:04pm

Sat Oct 24, 11:05am

Sat Oct 24, 10:05am

Sat Oct 24, 9:04am

Sat Oct 24, 8:04am

Sat Oct 24, 7:04am

Sat Oct 24, 6:04am

Sat Oct 24, 5:04am

Sat Oct 24, 4:04am

Sat Oct 24, 3:04am

Sat Oct 24, 2:04am

Sat Oct 24, 1:05am

Sat Oct 24, 12:04am

Fri Oct 23, 11:04pm

Fri Oct 23, 10:04pm

Fri Oct 23, 9:04pm

Fri Oct 23, 8:05pm

Fri Oct 23, 7:04pm

Fri Oct 23, 6:04pm

Fri Oct 23, 5:05pm

Fri Oct 23, 4:04pm

Fri Oct 23, 3:04pm

Fri Oct 23, 2:05pm

Fri Oct 23, 1:04pm

Fri Oct 23, 12:04pm

Fri Oct 23, 11:04am

Fri Oct 23, 10:04am

Fri Oct 23, 9:04am

Fri Oct 23, 8:04am

Fri Oct 23, 7:04am

Fri Oct 23, 6:04am

Fri Oct 23, 5:04am

Fri Oct 23, 4:04am

Fri Oct 23, 3:04am

Fri Oct 23, 2:04am

Fri Oct 23, 1:04am

Fri Oct 23, 12:04am

Thu Oct 22, 11:04pm

Thu Oct 22, 10:04pm

Thu Oct 22, 9:05pm

Thu Oct 22, 8:04pm

Thu Oct 22, 7:05pm

Thu Oct 22, 6:04pm

Thu Oct 22, 5:04pm

Thu Oct 22, 4:05pm

Thu Oct 22, 3:04pm

Thu Oct 22, 2:05pm

Thu Oct 22, 1:04pm

Thu Oct 22, 12:04pm

Thu Oct 22, 11:04am

Thu Oct 22, 10:05am

Thu Oct 22, 9:04am

Thu Oct 22, 8:05am

Thu Oct 22, 7:04am

Thu Oct 22, 6:04am

Thu Oct 22, 5:04am

Thu Oct 22, 4:04am

Thu Oct 22, 3:04am

Thu Oct 22, 2:04am

Thu Oct 22, 1:04am

Thu Oct 22, 12:04am

Wed Oct 21, 11:05pm

Wed Oct 21, 10:04pm

Wed Oct 21, 9:04pm

Wed Oct 21, 8:04pm

Wed Oct 21, 7:04pm

Wed Oct 21, 6:04pm

Wed Oct 21, 5:05pm

Wed Oct 21, 4:04pm

Wed Oct 21, 3:04pm

Wed Oct 21, 2:05pm

Wed Oct 21, 1:04pm

Wed Oct 21, 12:04pm

Wed Oct 21, 11:04am

Wed Oct 21, 10:04am

Wed Oct 21, 9:04am

Wed Oct 21, 8:04am

Wed Oct 21, 7:04am

Wed Oct 21, 6:04am

Wed Oct 21, 5:04am

Wed Oct 21, 4:04am

Wed Oct 21, 3:04am

Wed Oct 21, 2:04am

Wed Oct 21, 1:04am

Wed Oct 21, 12:04am

Tue Oct 20, 11:05pm

Tue Oct 20, 10:04pm

Tue Oct 20, 9:04pm

Tue Oct 20, 8:05pm

Tue Oct 20, 7:04pm

Tue Oct 20, 6:04pm

Tue Oct 20, 5:05pm

Tue Oct 20, 4:04pm

Tue Oct 20, 3:05pm

Tue Oct 20, 2:07pm

Tue Oct 20, 1:04pm

Tue Oct 20, 12:04pm

Tue Oct 20, 11:04am

Tue Oct 20, 10:05am

Tue Oct 20, 9:04am

Tue Oct 20, 8:04am

Tue Oct 20, 7:04am

Tue Oct 20, 6:04am

Tue Oct 20, 5:04am

Tue Oct 20, 4:04am

Tue Oct 20, 3:04am

Tue Oct 20, 2:04am

Tue Oct 20, 1:04am

Tue Oct 20, 12:04am

Mon Oct 19, 11:04pm

Mon Oct 19, 10:04pm

Mon Oct 19, 9:04pm

Mon Oct 19, 8:04pm

Mon Oct 19, 7:04pm

Mon Oct 19, 6:04pm

Mon Oct 19, 5:04pm

Mon Oct 19, 4:04pm

Mon Oct 19, 3:04pm

Mon Oct 19, 2:04pm

Mon Oct 19, 1:05pm

Mon Oct 19, 12:04pm

Mon Oct 19, 11:04am

Mon Oct 19, 10:04am

Mon Oct 19, 9:04am

Mon Oct 19, 8:04am

Mon Oct 19, 7:04am

Mon Oct 19, 6:04am

Mon Oct 19, 5:04am

Meta data:

ID: 9b2742d3-e4f4-481f-b02c-0b922c9ecad8
Link: https://api.weather.gov/products/9b2742d3-e4f4-481f-b02c-0b922c9ecad8